Dewpoint
11 11 11 10 9 8 7 5 5 5 4 4 5 8 11 12 12 12 11 10 7 5 3 0 4 10 9 10 11 11 10 10 10 11 12 11 12 12 12 11 11 12 11
7 6 10 11 10 9 8 6 6 6 4 3 4 6 9 11 12 12 11 7 3 0 -3 -2 4 12 10 10 11 10 10 10 11 11 11 11 11 12 12 12 12 12 12
3 3 6 11 11 10 9 7 6 6 6 4 4 4 5 7 9 8 5 2 -1 -3 -5 2 11 12 9 9 10 9 9 10 10 11 10 11 11 12 11 11 11 10 10
2 3 9 10 11 11 10 8 7 7 7 5 4 3 4 4 4 3 1 -1 -4 0 1 5 12 10 8 8 8 9 10 10 10 10 10 10 11 11 9 8 8 9 9
-0 1 8 12 11 12 11 10 8 6 7 7 4 3 3 3 2 0 -1 4 9 10 11 11 11 8 8 8 8 9 9 9 9 10 10 10 10 10 9 7 4 3 0
3 2 8 12 13 11 12 11 10 8 7 7 5 4 3 3 0 1 4 10 11 10 10 12 8 8 8 9 9 9 9 9 8 9 10 10 10 10 4 -0 -2 -4 -5
7 6 10 10 13 11 11 13 12 10 8 8 7 4 3 1 3 7 7 9 10 10 10 8 8 8 8 9 8 8 8 7 8 10 9 9 8 6 1 -3 -3 -6 -6
7 11 13 14 13 13 12 12 13 11 10 8 8 5 3 2 7 9 8 8 8 10 9 7 8 9 9 9 9 8 8 7 6 7 8 8 8 7 -3 -5 -9 -7 -4
5 6 11 14 14 12 13 12 13 13 12 12 12 11 9 6 8 10 8 7 7 9 7 8 8 9 9 9 8 7 8 7 7 5 1 8 8 5 -3 -12 -11 -9 -4
6 8 10 12 13 12 12 13 12 11 8 12 12 12 11 9 10 10 9 4 -1 -1 7 8 7 8 8 7 7 7 7 6 5 1 -4 7 4 4 -4 -18 -13 -12 -9
9 10 10 10 12 12 12 12 12 12 12 11 10 10 9 12 10 10 9 5 -7 -1 5 7 7 7 7 7 7 7 7 6 2 -6 -0 5 3 1 -9 -13 -6 -10 -8
9 9 10 10 11 13 13 13 12 12 11 10 10 9 9 10 9 10 10 5 -2 -5 4 6 6 7 6 7 7 7 6 3 -7 -9 2 5 4 -1 -13 -10 -8 -9 -10
9 9 9 10 11 12 12 13 12 12 11 10 10 8 8 9 10 11 9 7 -2 -5 -1 2 5 6 7 7 6 6 5 5 4 -8 -7 1 -4 -10 -9 -8 -8 -9 -11
9 9 10 11 11 11 11 12 12 11 11 11 9 9 7 11 9 10 6 -2 -7 -7 -4 -4 3 6 7 7 6 6 6 6 5 -1 -7 -7 -7 -7 -9 -8 -9 -10 -10
9 9 9 12 11 11 11 11 11 11 10 10 8 9 8 10 9 8 3 -2 -5 -7 -6 -1 3 6 6 7 7 6 6 6 5 -2 -6 -9 -9 -9 -9 -9 -9 -9 -9
9 10 9 10 11 10 11 11 11 11 10 10 9 11 11 9 8 8 5 1 -5 -7 -8 -4 1 5 6 7 7 6 6 6 6 3 -6 -7 -8 -8 -8 -9 -8 -8 -8
8 8 9 9 11 11 10 10 11 11 9 9 10 11 9 8 7 9 7 2 -2 -9 -10 -9 1 5 6 7 7 7 6 6 6 4 -4 -5 -7 -8 -8 -7 -5 -5 -5
8 9 7 9 11 11 10 10 10 10 8 9 10 9 8 6 3 3 5 3 -2 -7 -12 -11 4 7 6 6 7 6 6 6 6 0 -2 -5 -5 -6 -6 -4 -4 -4 -3
8 8 6 10 11 11 10 10 9 10 9 9 10 10 9 7 6 5 8 3 -1 -6 -6 -7 6 6 4 6 7 7 6 7 7 5 5 -1 -1 -2 -3 -3 -2 -2 -2
8 9 7 9 10 10 10 9 9 10 10 10 10 9 7 9 8 8 8 3 -1 -3 3 4 3 3 4 5 7 7 7 7 7 7 6 5 5 4 2 -0 0 1 -0
9 9 7 9 10 10 10 10 10 10 10 10 10 9 8 7 7 7 8 4 1 4 6 7 6 5 6 6 7 7 7 7 7 7 7 6 7 6 5 5 3 3 4
8 9 7 7 11 10 10 10 10 10 10 10 10 10 8 7 8 6 5 6 3 1 5 7 6 6 6 5 5 6 7 7 7 7 6 6 6 6 6 6 4 4 4
8 8 7 4 10 10 11 10 10 10 10 10 10 10 9 8 7 6 5 7 5 6 5 7 6 5 5 6 5 5 6 6 6 6 6 5 4 4 5 4 4 3 4
8 8 6 5 10 10 10 9 8 8 8 8 9 9 9 8 7 7 8 8 6 7 7 7 7 5 4 5 6 6 4 5 4 4 5 4 4 3 3 2 2 2 2
7 7 6 6 9 9 9 9 9 8 8 9 9 9 9 8 7 9 9 9 7 8 8 7 6 5 4 5 6 1 3 5 2 2 3 2 3 3 3 3 3 2 3
8 8 7 6 8 9 9 9 8 8 8 9 9 9 9 9 8 8 8 8 8 7 6 7 4 5 5 4 1 2 4 4 2 3 5 6 5 5 4 4 3 4 4
Wind_Speed
4 4 4 12 21 22 22 24 26 24 22 20 18 18 25 27 26 25 23 21 21 20 20 21 21 23 22 19 17 18 18 23 24 25 26 26 26 27 27 26 27 27 26
3 3 4 12 22 24 24 24 25 24 22 21 20 19 20 22 24 22 21 21 20 19 20 22 22 22 20 18 18 20 19 24 25 24 24 24 23 24 24 24 24 24 23
2 1 3 11 21 25 25 26 25 24 22 21 22 22 22 21 21 20 20 20 20 20 21 24 23 25 22 19 20 20 24 25 24 23 21 21 22 22 20 19 19 19 19
2 3 3 8 20 25 25 26 27 25 22 21 21 23 23 23 22 21 21 20 19 19 22 24 27 24 23 21 22 25 26 25 23 22 22 21 21 18 17 16 15 16 16
4 6 7 7 14 24 26 26 27 26 23 21 22 24 25 25 23 23 23 23 23 21 23 26 28 27 25 26 26 25 23 21 20 22 24 21 22 20 17 16 16 16 16
7 7 10 10 8 21 26 26 27 28 27 26 25 26 26 25 24 23 24 25 23 23 25 27 30 31 29 27 25 22 21 18 18 22 22 21 22 19 15 14 15 15 15
8 10 13 11 11 15 24 27 28 30 30 29 28 28 28 26 25 26 25 25 23 22 26 29 30 31 32 28 26 23 19 16 16 23 21 20 18 17 16 17 17 16 16
8 14 15 16 13 12 22 27 31 32 30 28 29 32 32 29 28 27 25 23 22 23 27 32 33 35 31 26 21 19 18 16 15 16 21 22 20 20 18 17 16 16 17
8 9 14 16 17 16 17 25 28 33 30 23 26 26 31 32 30 28 25 22 22 23 34 36 36 33 29 26 20 17 17 12 9 14 18 22 21 19 18 17 17 18 17
5 6 9 17 21 22 20 24 25 24 25 28 28 29 27 25 27 27 25 20 19 26 35 36 34 32 28 20 19 18 14 10 8 15 20 23 21 20 19 18 18 17 17
6 7 8 11 20 22 23 24 25 23 24 29 22 21 24 25 25 24 23 23 23 30 34 35 34 30 25 23 20 19 14 8 9 17 20 21 21 21 19 18 18 17 16
8 9 11 12 15 22 23 24 25 26 28 22 29 24 25 20 25 28 25 23 25 30 33 36 36 30 23 24 26 20 12 11 12 16 20 21 21 20 18 18 17 15 14
9 10 11 12 13 16 21 24 25 27 26 26 28 28 32 32 33 32 28 27 28 29 32 35 39 32 27 27 23 18 13 12 10 15 19 20 19 19 18 18 16 15 14
10 9 11 11 13 14 15 18 21 19 21 27 29 28 34 37 38 35 33 32 32 33 34 35 41 35 32 21 17 17 14 10 6 11 17 18 18 18 18 17 16 15 13
10 9 10 11 13 14 15 16 17 21 22 23 24 32 42 40 39 36 35 33 32 33 33 37 40 39 34 19 18 18 15 9 5 11 17 17 18 18 18 18 15 13 12
13 13 10 12 14 13 13 16 20 21 21 27 27 31 44 42 39 39 35 33 31 30 33 38 41 40 33 20 21 19 13 11 7 9 16 17 17 18 17 16 15 14 12
12 11 15 14 17 15 15 15 20 23 22 20 36 39 41 42 42 38 34 33 31 31 32 35 41 37 31 22 20 17 14 14 9 8 14 16 18 17 16 15 15 14 12
14 10 12 14 17 17 18 17 18 22 22 28 39 40 38 40 36 37 36 34 32 32 32 37 43 33 33 25 19 18 16 16 10 8 14 16 17 17 16 15 14 12 10
15 11 11 17 19 22 19 20 21 21 24 32 38 40 39 39 40 39 38 37 35 34 35 38 43 32 33 26 19 19 19 15 12 13 12 14 13 13 13 13 12 11 10
18 13 12 17 20 20 19 21 21 22 26 31 33 36 42 43 39 39 38 38 37 38 37 37 36 32 29 25 21 20 19 16 15 13 13 14 12 12 12 13 13 12 12
21 16 13 21 26 25 27 27 25 25 28 33 36 41 44 43 40 39 38 38 38 40 36 34 31 30 28 23 29 21 18 16 15 15 15 15 15 14 14 13 15 14 14
23 18 14 22 27 30 28 29 30 28 27 29 38 46 45 44 41 40 39 40 39 39 38 34 35 35 31 26 29 28 22 18 20 20 18 19 19 18 18 18 18 18 17
27 21 17 18 26 29 29 28 29 29 32 29 40 49 51 42 41 40 41 39 41 39 40 36 39 34 35 32 26 24 14 11 26 25 25 23 23 25 23 22 23 22 21
28 21 17 17 24 27 27 28 27 30 31 33 34 42 49 42 42 40 37 38 42 39 38 37 38 35 33 35 31 27 22 17 15 15 29 30 28 27 27 27 26 26 26
28 23 19 17 22 25 24 22 22 22 22 21 30 30 43 42 42 36 33 39 36 39 39 40 39 35 33 35 38 25 29 32 20 18 16 24 32 33 33 31 30 28 27
29 24 22 19 22 25 26 26 22 25 22 27 31 35 42 42 33 34 36 41 39 35 28 31 26 35 34 37 28 26 36 34 31 25 21 18 18 18 21 28 32 29 27
Wind_Direction
193 237 226 183 182 180 177 173 172 174 173 170 167 154 150 156 159 158 156 156 160 162 163 162 154 149 146 147 138 139 137 137 131 128 122 121 120 121 119 120 115 112 111
245 301 200 185 187 184 181 178 177 175 173 172 173 170 164 163 161 162 163 162 163 166 164 161 159 146 152 157 150 146 153 139 136 134 127 127 127 124 121 120 119 117 116
220 346 181 194 193 190 186 184 182 181 177 175 173 174 174 172 169 167 165 163 166 168 165 162 152 151 162 159 154 157 151 146 142 137 133 127 127 125 125 124 126 129 134
302 276 196 206 199 197 192 191 188 184 183 180 176 175 175 176 174 171 169 169 169 166 161 154 147 153 159 158 154 149 148 146 143 136 130 127 120 129 130 132 134 134 135
293 266 227 221 215 206 200 197 193 192 188 182 181 178 176 174 174 172 167 162 156 150 144 146 148 150 150 149 148 149 149 149 147 137 132 131 126 123 129 135 134 135 135
215 241 224 223 225 218 210 203 199 195 193 188 185 182 178 175 172 167 160 156 155 155 149 150 146 144 143 145 145 148 149 152 153 143 136 138 131 129 137 141 133 131 134
215 213 219 223 220 225 220 211 206 200 196 191 189 186 182 177 170 163 159 160 160 163 153 153 148 145 148 146 150 149 147 148 156 141 142 144 135 131 131 130 130 131 130
203 221 218 207 216 222 224 218 213 206 200 193 193 190 184 181 170 166 163 165 168 167 157 153 149 149 147 148 156 149 148 136 144 160 148 134 134 132 133 132 128 124 132
265 249 223 208 205 215 230 224 220 216 186 184 189 192 182 183 168 168 166 167 175 168 157 152 155 152 151 163 163 154 150 151 163 162 152 139 136 137 136 133 133 134 129
243 294 232 215 215 213 223 222 223 214 202 195 199 162 173 184 174 173 170 162 175 163 160 157 157 154 158 163 157 156 156 147 165 166 156 141 139 135 134 132 131 129 127
230 236 251 224 222 223 222 226 221 214 204 206 195 172 192 192 177 176 176 164 167 163 164 162 160 157 160 161 165 162 155 158 158 158 149 145 138 138 134 131 132 132 131
235 240 243 234 229 224 228 226 227 220 210 220 205 208 209 198 185 187 181 170 167 167 165 163 162 160 163 161 159 157 163 136 137 156 150 145 141 139 137 138 141 137 136
232 240 245 239 226 214 221 224 230 226 225 223 208 203 197 196 187 187 179 175 167 167 171 169 165 161 157 162 162 163 154 135 123 163 155 151 146 145 144 145 143 142 138
224 238 237 226 206 208 219 227 222 218 213 211 202 195 174 184 184 186 180 175 172 174 171 169 168 161 160 167 170 168 162 147 133 168 162 155 153 153 150 149 150 144 140
215 230 225 213 205 210 210 215 201 204 206 202 203 200 195 187 186 185 180 174 172 172 171 168 168 165 165 166 166 170 167 166 148 174 171 162 162 161 158 156 149 143 144
225 224 238 217 207 212 203 200 201 206 209 206 212 195 185 176 184 184 179 174 173 176 174 171 171 169 168 172 166 166 173 181 176 178 183 168 169 165 163 157 151 153 156
225 232 228 223 205 206 208 206 202 198 199 200 177 167 172 183 184 182 178 175 178 173 172 173 172 170 171 168 167 170 188 191 186 196 191 179 173 169 166 161 159 164 167
227 231 218 203 207 203 204 201 195 184 188 178 175 178 184 188 188 188 186 181 178 173 174 171 170 169 171 175 174 180 190 186 177 177 182 181 176 171 171 171 170 177 180
219 226 213 184 202 203 206 202 196 190 194 190 186 185 191 192 192 192 187 181 179 175 169 170 175 173 174 176 182 182 188 191 185 174 168 177 179 179 184 185 188 194 203
209 208 202 188 195 200 193 199 191 193 194 197 200 200 191 192 194 197 190 182 177 176 172 175 178 182 184 180 183 181 190 195 197 194 191 186 191 195 197 202 207 214 222
203 202 199 189 190 199 198 196 196 198 200 203 202 201 193 195 199 196 190 185 181 179 177 181 180 181 185 188 189 184 190 200 210 217 215 214 217 218 220 225 230 234 235
206 203 201 193 191 197 201 200 203 203 209 212 205 199 197 199 202 202 198 191 187 187 186 184 186 186 190 189 191 201 193 200 219 227 232 236 238 235 235 238 243 246 248
203 204 205 198 194 196 202 209 213 214 216 215 213 205 203 202 202 201 197 197 194 193 189 190 190 193 193 191 198 196 189 209 219 225 232 238 241 242 245 247 249 254 254
205 203 201 200 192 197 203 209 214 214 212 216 218 212 202 201 199 201 201 203 199 202 201 195 195 193 195 193 198 209 217 227 209 221 230 233 238 243 248 252 255 258 257
204 204 199 199 190 200 200 205 206 205 211 213 217 208 213 192 197 203 204 199 200 202 206 200 192 199 199 203 197 199 223 222 226 221 226 233 237 244 248 254 257 259 259
203 204 199 201 196 195 196 202 199 200 201 212 210 205 199 186 189 204 200 202 198 197 187 191 194 209 206 209 212 219 224 222 226 227 229 235 247 256 256 253 254 256 258
Height
1491 1492 1492 1494 1495 1498 1500 1501 1502 1504 1504 1504 1506 1508 1511 1514 1517 1518 1520 1522 1523 1524 1526 1529 1531 1534 1536 1539 1541 1543 1544 1545 1546 1548 1548 1549 1550 1551 1552 1552 1554 1555 1556
1489 1489 1490 1492 1494 1496 1498 1501 1502 1503 1503 1504 1506 1509 1512 1514 1517 1519 1521 1522 1523 1525 1527 1529 1532 1535 1537 1539 1541 1544 1546 1546 1548 1548 1550 1551 1553 1553 1555 1556 1557 1558 1559
1487 1487 1488 1490 1493 1495 1496 1498 1502 1503 1504 1504 1506 1508 1511 1514 1516 1519 1521 1523 1524 1525 1526 1529 1532 1535 1537 1540 1541 1544 1546 1547 1548 1550 1550 1553 1554 1555 1556 1558 1559 1560 1561
1484 1485 1487 1489 1491 1493 1495 1496 1498 1501 1503 1505 1507 1508 1511 1513 1516 1518 1521 1523 1525 1526 1526 1528 1532 1536 1537 1540 1542 1544 1546 1548 1549 1551 1551 1555 1556 1557 1558 1559 1560 1561 1561
1481 1482 1485 1488 1490 1492 1493 1495 1496 1498 1502 1504 1507 1508 1510 1512 1515 1517 1520 1523 1524 1526 1529 1530 1532 1535 1539 1541 1543 1545 1547 1548 1549 1552 1552 1556 1557 1559 1560 1561 1560 1563 1563
1480 1480 1482 1485 1487 1489 1491 1493 1494 1495 1498 1501 1504 1507 1510 1513 1514 1518 1520 1523 1526 1528 1530 1533 1534 1535 1540 1543 1544 1545 1547 1549 1550 1552 1556 1556 1558 1560 1560 1561 1562 1563 1565
1477 1479 1480 1482 1484 1486 1488 1490 1491 1492 1493 1496 1500 1505 1508 1511 1513 1516 1519 1523 1526 1530 1531 1534 1537 1536 1540 1543 1544 1546 1548 1550 1552 1553 1556 1557 1559 1561 1561 1562 1563 1565 1566
1476 1476 1478 1480 1482 1483 1484 1486 1484 1488 1491 1495 1498 1502 1504 1507 1510 1516 1519 1522 1527 1529 1533 1535 1538 1539 1543 1543 1545 1547 1550 1551 1554 1554 1556 1557 1560 1562 1561 1563 1564 1567 1569
1474 1475 1475 1477 1480 1480 1481 1482 1486 1476 1486 1496 1497 1499 1504 1504 1508 1515 1518 1521 1527 1529 1533 1536 1539 1541 1543 1544 1547 1549 1552 1554 1555 1555 1556 1559 1561 1562 1563 1563 1566 1569 1571
1471 1473 1472 1475 1476 1477 1478 1479 1483 1486 1480 1492 1497 1494 1504 1508 1511 1513 1517 1519 1525 1529 1534 1536 1541 1544 1542 1545 1548 1550 1554 1555 1556 1555 1557 1559 1560 1562 1564 1565 1568 1570 1572
1468 1470 1471 1472 1473 1475 1476 1477 1480 1485 1488 1491 1494 1499 1505 1509 1514 1514 1519 1520 1524 1529 1533 1538 1541 1544 1544 1547 1549 1552 1555 1556 1555 1556 1559 1561 1561 1563 1565 1567 1570 1572 1574
1465 1467 1468 1469 1470 1472 1474 1475 1477 1479 1483 1484 1492 1495 1504 1507 1511 1515 1520 1522 1524 1528 1533 1538 1542 1544 1545 1547 1550 1554 1557 1556 1555 1558 1561 1563 1563 1565 1566 1569 1572 1574 1575
1464 1464 1465 1466 1467 1469 1470 1472 1473 1476 1479 1483 1486 1489 1500 1505 1511 1515 1518 1521 1523 1528 1533 1537 1541 1545 1545 1549 1551 1554 1556 1557 1557 1560 1561 1563 1565 1566 1568 1571 1574 1575 1577
1461 1462 1462 1464 1465 1467 1468 1470 1472 1474 1477 1480 1483 1488 1491 1491 1506 1511 1516 1519 1521 1527 1531 1536 1540 1545 1547 1549 1551 1554 1556 1558 1559 1561 1562 1564 1566 1568 1569 1572 1574 1576 1578
1458 1459 1459 1462 1464 1465 1466 1468 1470 1472 1474 1477 1480 1483 1485 1493 1502 1509 1514 1517 1521 1525 1530 1535 1539 1544 1548 1548 1551 1553 1556 1559 1560 1561 1563 1565 1567 1569 1571 1572 1576 1578 1579
1456 1456 1457 1459 1462 1464 1465 1467 1469 1472 1473 1475 1475 1476 1482 1490 1500 1507 1512 1516 1520 1524 1530 1534 1538 1543 1547 1549 1552 1553 1557 1560 1561 1562 1564 1565 1568 1570 1572 1574 1576 1578 1580
1453 1454 1455 1456 1459 1462 1464 1466 1469 1471 1473 1473 1474 1479 1486 1491 1498 1504 1510 1514 1520 1523 1528 1533 1538 1543 1547 1548 1551 1554 1557 1559 1561 1563 1564 1566 1569 1571 1573 1575 1576 1578 1580
1449 1451 1453 1454 1457 1460 1463 1465 1467 1470 1474 1476 1477 1482 1487 1494 1499 1504 1508 1513 1518 1522 1526 1531 1537 1540 1545 1547 1551 1554 1557 1560 1561 1562 1564 1566 1568 1571 1573 1576 1577 1578 1580
1445 1448 1449 1453 1455 1459 1461 1465 1467 1471 1475 1477 1480 1483 1487 1492 1497 1502 1506 1511 1516 1520 1525 1530 1536 1540 1543 1546 1550 1554 1557 1560 1561 1562 1565 1567 1569 1570 1573 1575 1577 1578 1579
1442 1445 1446 1450 1454 1457 1461 1464 1466 1470 1474 1478 1481 1484 1487 1491 1497 1501 1506 1510 1512 1518 1522 1529 1534 1539 1542 1546 1550 1555 1557 1560 1561 1562 1564 1566 1568 1570 1572 1574 1575 1576 1577
1439 1441 1443 1446 1451 1454 1457 1460 1465 1467 1472 1475 1478 1481 1485 1489 1495 1500 1504 1507 1511 1516 1520 1527 1531 1534 1540 1545 1550 1555 1556 1558 1559 1561 1563 1564 1566 1568 1570 1572 1573 1574 1575
1435 1438 1440 1442 1447 1451 1454 1458 1461 1464 1468 1471 1473 1476 1483 1487 1492 1497 1501 1504 1509 1514 1519 1523 1529 1532 1538 1542 1546 1552 1554 1556 1557 1558 1559 1560 1564 1566 1567 1569 1569 1570 1571
1431 1433 1436 1439 1444 1449 1453 1456 1459 1462 1463 1465 1468 1471 1478 1483 1490 1494 1498 1502 1507 1513 1516 1521 1527 1530 1534 1538 1544 1548 1550 1550 1553 1554 1554 1557 1559 1562 1563 1564 1565 1566 1567
1427 1431 1433 1436 1441 1445 1449 1453 1455 1455 1457 1460 1465 1469 1473 1481 1488 1492 1496 1500 1505 1510 1514 1519 1524 1528 1531 1535 1541 1545 1547 1549 1549 1550 1552 1553 1555 1557 1558 1559 1560 1561 1563
1424 1427 1430 1433 1437 1441 1445 1449 1452 1453 1456 1457 1461 1466 1470 1478 1484 1490 1494 1498 1502 1508 1512 1515 1519 1525 1528 1533 1536 1539 1543 1545 1545 1546 1546 1548 1550 1550 1552 1554 1555 1557 1557
1422 1424 1427 1429 1433 1437 1442 1445 1449 1452 1454 1456 1459 1463 1468 1476 1481 1487 1490 1497 1501 1503 1507 1511 1517 1523 1526 1530 1533 1534 1537 1539 1540 1542 1544 1545 1546 1548 1548 1548 1549 1549 1551